Weather History for Gulfport, MS

Change the Weather History Date:

Saturday, October 1, 2011

  Actual Average Record
Temperature  
Mean Temperature 64 °F -  
Max Temperature 79 °F 83 °F 93 °F (1977)
Min Temperature 50 °F 62 °F 44 °F (1967)
Growing Degree Days 14 (Base 50)    
Moisture  
Dew Point 46 °F    
Average Humidity 54    
Maximum Humidity 89    
Minimum Humidity 28    
Precipitation  
Precipitation 0.00 in - - ()
Sea Level Pressure  
Sea Level Pressure 30.07 in    
Wind  
Wind Speed 6 mph (North)    
Max Wind Speed 14 mph    
Max Gust Speed 21 mph    
Visibility 10 miles    
Events      
Averages and records for this station are not official NWS values.
T = Trace of Precipitation, MM = Missing Value Source: NWS Daily Summary

Daily Weather History Graph

Daily Weather History Graph

Search for Another Location

Airport:

Trip Planner

Search our weather history database for the weather conditions in past years. The results will help you decide how hot, cold, wet, or windy it might be!

Date:

Astronomy

Oct. 01, 2011 Rise Set
Actual Time 6:49 AM CDT 6:41 PM CDT
Civil Twilight 6:25 AM CDT 7:05 PM CDT
Nautical Twilight 5:57 AM CDT 7:33 PM CDT
Astronomical Twilight 5:29 AM CDT 8:01 PM CDT
Moon 11:32 AM CDT (10/1) 10:02 PM CDT (10/1)
Length of Visible Light 12h 40m
Length of Day
11h 52m
Waxing Crescent, 24% of the Moon is Illuminated
Oct 1
Waxing Crescent
Oct 3
First Quarter
Oct 11
Full
Oct 19
Last Quarter
Oct 26
New

Hourly Weather History & Observations

Time (CDT) Temp. Dew Point Humidity Pressure Visibility Wind Dir Wind Speed Gust Speed Precip Events Conditions
12:53 AM 59.0 °F 51.1 °F 75% 30.01 in 10.0 mi NNW 6.9 mph - N/A   Clear
1:53 AM 57.9 °F 48.9 °F 72% 30.01 in 10.0 mi NNW 6.9 mph - N/A   Clear
2:53 AM 55.0 °F 50.0 °F 83% 30.01 in 10.0 mi West 3.5 mph - N/A   Clear
3:53 AM 53.1 °F 48.0 °F 83% 30.01 in 10.0 mi NW 3.5 mph - N/A   Clear
4:53 AM 52.0 °F 48.0 °F 86% 30.03 in 10.0 mi Calm Calm - N/A   Clear
5:53 AM 50.0 °F 46.9 °F 89% 30.05 in 10.0 mi Calm Calm - N/A   Clear
6:53 AM 52.0 °F 48.0 °F 86% 30.07 in 10.0 mi NNW 3.5 mph - N/A   Clear
7:53 AM 57.0 °F 48.0 °F 72% 30.09 in 10.0 mi Calm Calm - N/A   Clear
8:53 AM 63.0 °F 46.9 °F 56% 30.11 in 10.0 mi NNE 5.8 mph - N/A   Clear
9:53 AM 69.8 °F 46.4 °F 43% 30.12 in 10.0 mi NNE 8.1 mph - N/A   Clear
10:53 AM 73.0 °F 41.0 °F 31% 30.13 in 10.0 mi NE 11.5 mph 20.7 mph N/A   Clear
11:53 AM 75.9 °F 42.1 °F 30% 30.12 in 10.0 mi NNE 11.5 mph - N/A   Clear
12:53 PM 77.0 °F 42.1 °F 29% 30.10 in 10.0 mi Variable 5.8 mph - N/A   Clear
1:53 PM 79.0 °F 44.1 °F 29% 30.07 in 10.0 mi North 9.2 mph 19.6 mph N/A   Clear
2:53 PM 79.0 °F 45.0 °F 30% 30.05 in 10.0 mi North 12.7 mph 16.1 mph N/A   Clear
3:53 PM 79.0 °F 43.0 °F 28% 30.04 in 10.0 mi NNW 13.8 mph 19.6 mph N/A   Clear
4:53 PM 78.1 °F 43.0 °F 29% 30.04 in 10.0 mi North 12.7 mph - N/A   Clear
5:53 PM 75.9 °F 44.1 °F 32% 30.05 in 10.0 mi North 10.4 mph - N/A   Clear
6:53 PM 68.0 °F 50.0 °F 52% 30.06 in 10.0 mi NNW 5.8 mph - N/A   Clear
7:53 PM 66.0 °F 50.0 °F 56% 30.08 in 10.0 mi North 5.8 mph - N/A   Clear
8:53 PM 66.0 °F 48.0 °F 52% 30.10 in 10.0 mi North 4.6 mph - N/A   Clear
9:53 PM 64.0 °F 48.0 °F 56% 30.12 in 10.0 mi NNE 5.8 mph - N/A   Clear
10:53 PM 63.0 °F 46.0 °F 54% 30.12 in 10.0 mi NNE 4.6 mph - N/A   Clear
11:53 PM 62.6 °F 42.8 °F 48% 30.12 in 10.0 mi NNE 8.1 mph - N/A   Clear